Location: Unspecified
(58.9933°N, 5.6375°E)
Time: 11:19:36
(UTC+02:00)

Cosmos 2058 - Visible Passes

Search period start: 26 March 2017 00:00
Search period end: 05 April 2017 01:00
Orbit: 564 x 585 km, 82.5° (Epoch: 24 March)

Date Brightness Start Highest point End Pass type
(mag) Time Alt. Az. Time Alt. Az. Time Alt. Az.
26 Mar 4.4 20:45:52 10° N 20:49:04 21° ENE 20:52:14 10° ESE visible
26 Mar 3.0 22:22:20 10° NNW 22:26:33 76° W 22:28:54 25° S visible
27 Mar 5.6 00:00:43 10° NW 00:02:46 13° W 00:04:47 10° WSW visible
27 Mar 4.2 20:49:09 10° N 20:52:37 24° ENE 20:56:03 10° ESE visible
27 Mar 3.3 22:25:48 10° NNW 22:29:57 61° W 22:32:42 20° S visible
28 Mar 5.8 00:04:55 10° WNW 00:06:02 11° WNW 00:07:08 10° W visible
28 Mar 4.0 20:52:29 10° N 20:56:10 28° ENE 20:59:48 10° ESE visible
28 Mar 3.7 22:29:17 10° NNW 22:33:21 49° W 22:36:34 15° SSW visible
29 Mar 3.7 20:55:50 10° N 20:59:41 34° ENE 21:03:29 10° SE visible
29 Mar 4.1 22:32:48 10° NNW 22:36:43 40° W 22:40:29 11° SSW visible
30 Mar 3.4 20:59:12 10° N 21:03:11 41° ENE 21:07:07 10° SE visible
30 Mar 4.5 22:36:20 10° NNW 22:40:05 32° W 22:43:47 10° SSW visible
31 Mar 3.2 21:02:34 10° N 21:06:40 50° ENE 21:10:42 10° SSE visible
31 Mar 4.9 22:39:53 10° NNW 22:43:25 27° W 22:46:54 10° SW visible
01 Apr 3.0 21:05:59 10° N 21:10:08 61° ENE 21:14:14 10° SSE visible
01 Apr 5.3 22:43:30 10° NW 22:46:44 22° W 22:49:57 10° SW visible
02 Apr 2.9 21:09:24 10° NNW 21:13:35 76° ENE 21:17:43 10° SSE visible
02 Apr 5.6 22:47:10 10° NW 22:50:03 18° W 22:52:54 10° SW visible
03 Apr 3.0 21:12:49 10° NNW 21:17:01 87° WSW 21:21:09 10° S visible
03 Apr 5.7 22:50:55 10° NW 22:53:20 15° W 22:55:44 10° WSW visible
04 Apr 3.2 21:16:16 10° NNW 21:20:26 71° W 21:24:33 10° S visible
04 Apr 5.9 22:54:51 10° NW 22:56:36 12° W 22:58:20 10° WSW visible
